Terminal Aerodrome Forecast
Issued by NWS La Crosse, WI

Home | Current Version | Previous Version | Text Only | Print | Product List | Glossary On
Versions: 1 2 3 4 5 6 7 8 9 10 11 12 13 14 15 16 17 18 19 20 21 22 23 24 25 26 27 28 29 30 31 32 33 34 35 36 37 38 39 40 41 42
000
FTUS43 KARX 291501 AAB
TAFRST
TAF AMD
KRST 291501Z 2915/3012 33020G29KT 5SM BR OVC007
     FM291800 33023G33KT P6SM OVC012
     FM300000 33018G26KT P6SM OVC018
     FM300500 33012G20KT P6SM OVC022=

USA.gov is the U.S. government's official web portal to all federal, state and local government web resources and services.